DW5479 Weather Reports


time (UTC)temp
F
wind
direction
speed
knots
gust
knots
rain 1hr
in
rain 24hr
in
rain mn
in
humidity
%
barometer
mb
20260906073030 79 210 0.0 0.0 0.00 0.00 0.00 83 1010.3
20260906071548 79 136 0.0 3.5 0.00 0.00 0.00 82 1010.4
20260906070001 80 161 0.0 3.5 0.00 0.00 0.00 82 1010.7
20260906064533 80 164 0.9 5.2 0.00 0.00 0.00 81 1010.8
20260906063102 80 161 1.7 4.3 0.00 0.00 0.00 81 1011.0
20260906061520 80 158 0.0 3.5 0.00 0.00 0.00 79 1011.1
20260906060002 81 151 0.9 5.2 0.00 0.00 0.00 78 1011.2
20260906054521 81 145 2.6 4.3 0.00 0.00 0.00 77 1011.2
20260906053036 81 123 2.6 7.0 0.00 0.00 0.00 76 1011.2
20260906051602 82 142 1.7 6.1 0.00 0.00 0.00 75 1011.1
20260906050007 82 159 4.3 7.8 0.00 0.00 0.00 74 1011.3
20260906044526 82 150 1.7 7.0 0.00 0.00 0.00 72 1011.3
20260906043101 83 166 3.5 7.8 0.00 0.00 0.00 71 1011.2
20260906041524 83 140 2.6 7.0 0.00 0.00 0.00 69 1011.2
20260906040057 84 142 3.5 7.0 0.00 0.00 0.00 68 1011.1
20260906034539 84 161 2.6 8.7 0.00 0.00 0.00 66 1011.0
20260906033049 84 171 4.3 11.3 0.00 0.00 0.00 64 1010.6
20260906031516 85 152 3.5 10.4 0.00 0.00 0.00 63 1010.5
20260906030033 85 103 6.1 13.9 0.00 0.00 0.00 63 1010.2
20260906024526 86 160 4.3 11.3 0.00 0.00 0.00 61 1009.9
20260906023045 86 146 5.2 11.3 0.00 0.00 0.00 60 1009.5
20260906021515 87 149 7.0 14.8 0.00 0.00 0.00 59 1009.1
20260906020040 88 138 6.1 13.9 0.00 0.00 0.00 56 1008.8
20260906014507 89 162 7.0 13.0 0.00 0.00 0.00 54 1008.6
20260906013051 90 144 5.2 16.5 0.00 0.00 0.00 53 1008.4
20260906011553 91 154 3.5 7.8 0.00 0.00 0.00 47 1008.1
20260906010018 92 140 3.5 7.0 0.00 0.00 0.00 46 1007.9
20260906004531 92 154 3.5 10.4 0.00 0.00 0.00 45 1007.9
20260906003049 93 142 4.3 10.4 0.00 0.00 0.00 44 1007.8
20260906001503 95 131 4.3 8.7 0.00 0.00 0.00 33 1007.8
20260906000022 96 136 3.5 6.1 0.00 0.00 0.00 34 1007.8
20260905234539 96 138 3.5 7.0 0.00 0.00 0.00 36 1007.6
20260905233059 97 156 3.5 8.7 0.00 0.00 0.00 37 1007.7
20260905231530 98 139 4.3 8.7 0.00 0.00 0.00 36 1007.6
20260905230046 98 161 1.7 7.0 0.00 0.00 0.00 35 1007.6
20260905224621 98 127 1.7 7.0 0.00 0.00 0.00 35 1007.7
20260905223019 98 141 1.7 5.2 0.00 0.00 0.00 35 1007.7
20260905221535 98 143 1.7 7.0 0.00 0.00 0.00 36 1007.8
20260905214509 98 142 3.5 7.0 0.00 0.00 0.00 35 1007.8
20260905213022 97 134 3.5 7.8 0.00 0.00 0.00 35 1008.1
20260905211538 95 144 1.7 6.1 0.00 0.00 0.00 39 1008.2
20260905210106 95 142 0.9 6.1 0.00 0.00 0.00 42 1008.3
20260905204555 96 150 0.9 7.8 0.00 0.00 0.00 41 1008.5
20260905203017 96 150 3.5 7.0 0.00 0.00 0.00 41 1008.8
20260905201529 99 143 3.5 7.8 0.00 0.00 0.00 39 1009.2
20260905200048 98 120 1.7 7.8 0.00 0.00 0.00 39 1009.5
20260905194501 98 141 0.9 5.2 0.00 0.00 0.00 36 1009.7
20260905193022 97 143 3.5 7.8 0.00 0.00 0.00 38 1009.9
20260905191541 97 127 3.5 9.6 0.00 0.00 0.00 39 1010.2
20260905190055 97 200 2.6 7.0 0.00 0.00 0.00 39 1010.5
20260905184512 95 133 2.6 10.4 0.00 0.00 0.00 43 1010.8
20260905183022 94 163 1.7 6.1 0.00 0.00 0.00 46 1011.1
20260905181551 93 162 2.6 8.7 0.00 0.00 0.00 47 1011.3
20260905180020 94 140 2.6 7.8 0.00 0.00 0.00 48 1011.5
20260905174537 94 160 0.9 7.8 0.00 0.00 0.00 49 1011.7
20260905173056 93 183 0.9 7.8 0.00 0.00 0.00 52 1012.0
20260905171513 92 145 4.3 7.0 0.00 0.00 0.00 53 1012.2
20260905170027 91 135 3.5 7.0 0.00 0.00 0.00 57 1012.4
20260905164546 89 171 3.5 8.7 0.00 0.00 0.00 59 1012.5
20260905163057 89 163 4.3 8.7 0.00 0.00 0.00 61 1012.6
20260905161513 90 148 1.7 7.8 0.00 0.00 0.00 66 1012.6
20260905160023 87 141 3.5 6.1 0.00 0.00 0.00 69 1012.6
20260905154617 87 158 2.6 5.2 0.00 0.00 0.00 70 1012.7
20260905153022 85 160 3.5 7.0 0.00 0.00 0.00 75 1012.6
20260905151533 83 170 2.6 7.0 0.00 0.00 0.00 79 1012.5
20260905150107 83 145 2.6 7.0 0.00 0.00 0.00 79 1012.6
20260905144518 83 139 2.6 6.1 0.00 0.00 0.00 79 1012.5
20260905143038 84 158 3.5 7.0 0.00 0.00 0.00 78 1012.4
20260905141546 83 153 3.5 7.0 0.00 0.00 0.00 81 1012.4
20260905140105 82 150 1.7 4.3 0.00 0.00 0.00 84 1012.3
20260905134517 80 157 0.9 3.5 0.00 0.00 0.00 88 1012.0
20260905133050 78 154 0.0 2.6 0.00 0.00 0.00 89 1011.9
20260905131530 77 154 0.0 0.9 0.00 0.00 0.00 89 1011.9
20260905130049 77 160 0.0 0.0 0.00 0.00 0.00 89 1011.8
20260905124602 76 129 0.0 0.0 0.00 0.00 0.00 89 1011.6
20260905123026 76 145 0.0 0.9 0.00 0.00 0.00 89 1011.4
20260905121538 75 161 0.0 0.0 0.00 0.00 0.00 89 1011.2
20260905120057 75 174 0.0 0.0 0.00 0.00 0.00 89 1011.2
20260905114514 76 171 0.0 0.0 0.00 0.00 0.00 89 1011.2
20260905113036 75 155 0.0 0.0 0.00 0.00 0.00 89 1011.2
20260905111658 76 155 0.0 0.0 0.00 0.00 0.00 88 1011.2
20260905110006 76 141 0.0 0.0 0.00 0.00 0.00 88 1011.1
20260905104526 77 147 0.0 0.0 0.00 0.00 0.00 88 1011.0
20260905103056 77 143 0.0 0.9 0.00 0.00 0.00 88 1010.9
20260905101507 78 174 0.0 0.0 0.00 0.00 0.00 88 1011.0
20260905100127 78 148 0.0 0.0 0.00 0.00 0.00 88 1010.9
20260905094511 78 158 0.0 0.9 0.00 0.00 0.00 88 1010.9
20260905093026 78 164 0.0 0.9 0.00 0.00 0.00 87 1011.0
20260905091549 78 143 0.0 0.9 0.00 0.00 0.00 87 1011.0
20260905090057 78 141 0.0 0.0 0.00 0.00 0.00 87 1010.8
20260905084509 78 139 0.0 0.9 0.00 0.00 0.00 87 1010.7
20260905083024 78 177 0.0 0.9 0.00 0.00 0.00 87 1010.9
20260905081553 78 143 0.0 0.9 0.00 0.00 0.00 86 1011.0
20260905080021 78 149 0.0 0.9 0.00 0.00 0.00 86 1011.0
20260905074548 78 165 0.0 0.9 0.00 0.00 0.00 86 1011.2